CAPE
0 0 0 1 1 1 nan nan 0 0 nan nan nan nan nan 0 1 1 1 2 2 1 3 7 7 8 8 11 13 13 14 15 16 16 17 17 17 17 15 14 14 13 12 11 11 11 13 15 15 16 18 20 19 19 18 19 19 17 20 25 25 31 31 32 32 33 32 31 27 27 22 17 17 17 22 24 24 24 23 22 22 24 29 40 40 45
1 0 0 0 0 0 nan nan nan nan nan nan nan nan nan nan nan nan 1 1 1 nan 0 2 2 5 7 8 10 10 13 15 16 16 16 15 15 15 14 14 14 13 11 10 10 11 11 12 12 13 14 16 17 17 17 17 17 15 14 13 13 15 17 22 22 25 25 24 21 21 15 19 29 29 33 34 35 35 33 29 29 34 46 52 52 53
1 0 0 0 0 nan nan nan nan nan nan nan nan nan nan nan nan nan nan 1 1 3 1 nan nan 0 4 7 6 6 8 12 13 13 14 14 13 13 13 11 11 11 10 11 11 11 11 12 12 12 12 12 12 12 12 11 11 10 10 10 10 8 8 7 7 8 12 13 13 13 14 18 39 39 42 44 45 45 41 40 40 46 55 64 64 54
4 2 0 nan nan nan nan nan nan nan nan nan nan nan nan nan nan nan nan nan nan 5 1 nan nan nan nan 4 3 3 3 5 9 9 12 12 12 12 11 10 10 9 9 9 9 10 11 11 11 12 12 12 9 9 8 8 8 6 6 6 6 4 4 4 4 3 4 4 5 5 9 19 29 29 40 56 57 57 56 54 54 54 66 69 69 67
4 1 nan nan nan nan nan nan nan nan nan nan nan nan nan nan nan nan nan nan nan nan nan nan nan nan nan nan 1 1 0 0 2 2 6 10 10 10 10 9 9 9 8 9 9 8 10 11 11 11 12 11 10 10 8 7 7 5 4 3 3 3 3 3 3 2 3 3 3 3 6 10 18 18 32 47 63 63 68 67 67 70 73 73 73 77
nan nan nan nan nan nan nan nan nan nan nan nan nan nan nan nan nan nan nan nan nan nan nan nan nan nan nan nan nan nan nan nan nan nan 1 4 7 7 10 10 10 9 9 9 9 8 9 9 9 10 11 11 11 11 10 8 8 7 6 4 4 3 3 2 2 2 3 2 3 3 4 5 8 8 15 36 54 54 68 75 75 85 86 86 86 83
nan nan nan nan nan nan nan nan nan nan nan nan nan nan nan nan nan nan nan nan nan nan nan nan nan nan nan nan nan nan nan nan nan nan nan 0 3 3 7 9 9 9 9 10 10 9 10 10 10 10 10 10 11 11 10 9 9 8 7 6 6 6 4 3 3 2 2 3 3 3 3 3 4 4 7 14 34 34 54 66 66 84 91 95 95 93
nan nan nan nan nan nan nan nan nan nan nan nan nan nan nan nan nan nan nan nan nan nan nan nan nan nan nan nan nan nan nan nan nan nan nan nan nan nan 2 4 4 7 10 11 11 12 14 13 13 13 12 10 9 9 7 6 6 5 6 6 6 6 6 6 6 4 4 4 3 3 2 2 2 2 2 3 8 8 15 30 30 46 60 71 71 78
nan nan nan nan nan nan nan nan nan nan nan nan nan nan nan nan nan nan nan nan nan nan nan nan nan nan nan nan nan nan nan nan nan nan nan nan nan nan 0 1 1 6 8 9 9 12 13 12 12 13 14 12 11 11 8 6 6 4 4 3 3 4 4 4 4 4 4 4 3 3 3 3 2 2 2 2 4 4 8 14 14 29 45 57 57 63
nan nan nan nan nan nan nan nan nan nan nan nan nan nan nan nan nan nan nan nan nan nan nan nan nan nan nan nan nan nan nan nan nan nan nan nan nan nan nan nan nan 1 3 5 5 8 9 9 9 12 12 12 11 11 8 7 7 4 4 3 3 3 3 3 3 3 3 3 3 3 2 2 1 1 1 1 2 2 3 8 8 16 29 41 41 54
nan nan nan nan nan nan nan nan nan nan nan nan nan nan nan nan nan nan nan nan nan nan nan nan nan nan nan nan nan nan nan nan nan nan nan nan nan nan nan nan nan nan nan 0 0 2 5 6 6 7 8 10 9 9 7 7 7 6 5 4 4 4 4 4 4 3 3 2 2 2 2 1 0 0 0 0 1 1 1 2 2 5 13 24 24 38
nan nan nan nan nan nan nan nan nan nan nan nan nan nan nan nan nan nan nan nan nan nan nan nan nan nan nan nan nan nan nan nan nan nan nan nan nan nan nan nan nan nan nan nan nan nan 1 1 1 3 3 5 3 3 2 1 1 3 4 4 4 5 5 5 5 5 4 3 2 2 1 1 0 0 nan nan nan nan nan nan nan 0 3 7 7 19
nan nan nan nan nan nan nan nan nan nan nan nan nan nan nan nan nan nan nan nan nan nan nan nan nan nan nan nan nan nan nan nan nan nan nan nan nan nan nan nan nan nan nan nan nan nan nan 0 0 0 1 1 1 1 nan nan nan nan 0 1 1 3 3 4 4 4 4 3 2 2 1 0 0 0 nan nan nan nan nan nan nan nan nan 1 1 4
nan nan nan nan nan nan nan nan nan nan nan nan nan nan nan nan nan nan nan nan nan nan nan nan nan nan nan nan nan nan nan nan nan nan nan nan nan nan nan nan nan nan nan nan nan nan nan nan nan nan 0 0 1 1 0 nan nan nan nan nan nan nan 0 1 1 1 1 1 0 0 0 nan nan nan nan nan nan nan nan nan nan nan nan nan nan 0
nan nan nan nan nan nan nan nan nan nan nan nan nan nan nan nan nan nan nan nan nan nan nan nan nan nan nan nan nan nan nan nan nan nan nan nan nan nan nan nan nan nan nan nan nan nan nan nan nan nan nan nan 0 0 nan 0 0 nan nan nan nan nan nan nan nan nan 0 nan nan nan nan nan nan nan nan nan nan nan nan nan nan nan nan nan nan nan
nan nan nan nan nan nan nan nan nan nan nan nan nan nan nan nan nan nan nan nan nan nan nan nan nan nan nan nan nan nan nan nan nan nan nan nan nan nan nan nan nan nan nan nan nan nan nan nan nan nan nan nan nan nan nan 0 0 nan nan nan nan nan nan nan nan nan nan nan nan nan nan nan nan nan nan nan nan nan nan nan nan nan nan nan nan nan
nan nan nan nan nan nan nan nan nan nan nan nan nan nan nan nan nan nan nan nan nan nan nan nan nan nan nan nan nan nan nan nan nan nan nan nan nan nan nan nan nan nan nan nan nan nan nan nan nan nan nan nan nan nan nan nan nan nan nan nan nan nan nan nan nan nan nan nan nan nan nan nan nan nan nan nan nan nan nan nan nan nan nan nan nan nan
nan nan nan nan nan nan nan nan nan nan nan nan nan nan nan nan nan nan nan nan nan nan nan nan nan nan nan nan nan nan nan nan nan nan nan nan nan nan nan nan nan nan nan nan nan nan nan nan nan nan nan nan nan nan nan nan nan nan nan nan nan nan nan nan nan nan nan nan nan nan nan nan nan nan nan nan nan nan nan nan nan nan nan nan nan nan
nan nan nan nan nan nan nan nan nan nan nan nan nan nan nan nan nan nan nan nan nan nan nan nan nan nan nan nan nan nan nan nan nan nan nan nan nan nan nan nan nan nan nan nan nan nan nan nan nan nan nan nan nan nan nan nan nan nan nan nan nan nan nan nan nan nan nan nan nan nan nan nan nan nan nan nan nan nan nan nan nan nan nan nan nan nan
nan nan nan nan nan nan nan nan nan nan nan nan nan nan nan nan nan nan nan nan nan nan nan nan nan nan nan nan nan nan nan nan nan nan nan nan nan nan nan nan nan nan nan nan nan nan nan nan nan nan nan nan nan nan nan nan nan nan nan nan nan nan nan nan nan nan nan nan nan nan nan nan nan nan nan nan nan nan nan nan nan nan nan nan nan nan
nan nan nan nan nan nan nan nan nan nan nan nan nan nan nan nan nan nan nan nan nan nan nan nan nan nan nan nan nan nan nan nan nan nan nan nan nan nan nan nan nan nan nan nan nan nan nan nan nan nan nan nan nan nan nan nan nan nan nan nan nan nan nan nan nan nan nan nan nan nan nan nan nan nan nan nan nan nan nan nan nan nan nan nan nan nan
nan nan nan nan nan nan nan nan nan nan nan nan nan nan nan nan nan nan nan nan nan nan nan nan nan nan nan nan nan nan nan nan nan nan nan nan nan nan nan nan nan nan nan nan nan nan nan nan nan nan nan nan nan nan nan nan nan nan nan nan nan nan nan nan nan nan nan nan nan nan nan nan nan nan nan nan nan nan nan nan nan nan nan nan nan nan
nan nan nan nan nan nan nan nan nan nan nan nan nan nan nan nan nan nan nan nan nan nan nan nan nan nan nan nan nan nan nan nan nan nan nan nan nan nan nan nan nan nan nan nan nan nan nan nan nan nan nan nan nan nan nan nan nan nan nan nan nan nan nan nan nan nan nan nan nan nan nan nan nan nan nan nan nan nan nan nan nan nan nan nan nan nan
nan nan nan nan nan nan nan nan nan nan nan nan nan nan nan nan nan nan nan nan nan nan nan nan nan nan nan nan nan nan nan nan nan nan nan nan nan nan nan nan nan nan nan nan nan nan nan nan nan nan nan nan nan nan nan nan nan nan nan nan nan nan nan nan nan nan nan nan nan nan nan nan nan nan nan nan nan nan nan nan nan nan nan nan nan nan
nan nan nan nan nan nan nan nan nan nan nan nan nan nan nan nan nan nan nan nan nan nan nan nan nan nan nan nan nan nan nan nan nan nan nan nan nan nan nan nan nan nan nan nan nan nan nan nan nan nan nan nan nan nan nan nan nan nan nan nan nan nan nan nan nan nan nan nan nan nan nan nan nan nan nan nan nan nan nan nan nan nan nan nan nan nan
8 7 9 4 4 2 1 0 nan nan nan nan nan nan nan nan nan nan nan nan nan nan nan nan nan nan nan nan nan nan nan nan nan nan nan nan nan nan nan nan nan nan nan nan nan nan nan nan nan nan nan nan nan nan nan nan nan nan nan nan nan nan nan nan nan nan nan nan nan nan 0 0 0 0 0 0 0 0 0 0 0 nan nan nan nan nan
6 7 6 5 5 3 2 1 0 0 nan nan nan nan nan nan nan nan nan nan nan nan nan nan nan nan nan nan nan nan nan nan nan nan nan nan nan nan nan nan nan nan nan nan nan nan nan nan nan nan nan nan nan nan nan nan nan nan nan nan nan nan nan nan nan nan nan 0 0 0 0 0 1 1 1 1 1 1 1 1 1 0 nan nan nan nan
nan nan nan nan nan nan nan nan nan nan nan nan nan nan nan nan nan nan nan nan nan nan nan nan nan nan nan nan nan nan nan nan nan nan nan nan nan nan nan nan nan nan nan nan nan nan nan nan nan nan nan nan nan nan nan nan nan nan nan nan nan nan nan nan nan nan nan 0 0 0 1 1 2 2 2 1 1 1 1 1 1 1 nan nan nan nan
nan nan nan nan nan nan nan nan nan nan nan nan nan nan nan nan nan nan nan nan nan nan nan nan nan nan nan nan nan nan nan nan nan nan nan nan nan nan nan nan nan nan nan nan nan nan nan nan nan nan nan nan nan nan nan nan nan nan nan nan nan nan nan nan nan nan nan 0 1 1 1 2 2 2 2 2 2 2 1 2 2 1 0 nan nan nan
nan nan nan nan nan nan nan nan nan nan nan nan nan nan nan nan nan nan nan nan nan nan nan nan nan nan nan nan nan nan nan nan nan nan nan nan nan nan nan nan nan nan nan nan nan nan nan nan nan nan nan nan nan nan nan nan nan nan nan nan nan nan nan nan nan nan nan 0 0 0 1 2 2 2 2 2 2 2 2 3 3 3 0 nan nan nan
nan nan nan nan nan nan nan nan nan nan nan nan nan nan nan nan nan nan nan nan nan nan nan nan nan nan nan nan nan nan nan nan nan nan nan nan nan nan nan nan nan nan nan nan nan nan nan nan nan nan nan nan nan nan nan nan nan nan nan nan nan nan nan nan nan nan nan nan 0 0 0 0 0 0 1 2 2 2 3 6 6 6 2 0 0 nan
nan nan nan nan nan nan nan nan nan nan nan nan nan nan nan nan nan nan nan nan nan nan nan nan nan nan nan nan nan nan nan nan nan nan nan nan nan nan nan nan nan nan nan nan nan nan nan nan nan nan nan nan nan nan nan nan nan nan nan nan nan nan nan nan nan nan nan nan nan nan nan nan nan nan nan 0 2 2 5 6 6 6 4 1 1 nan
nan nan nan nan nan nan nan nan nan nan nan nan nan nan nan nan nan nan nan nan nan nan nan nan nan nan nan nan nan nan nan nan nan nan nan nan nan nan nan nan nan nan nan nan nan nan nan nan nan nan nan nan nan nan nan nan nan nan nan nan nan nan nan nan nan nan nan nan nan nan nan nan nan nan nan nan 0 0 4 4 4 4 5 2 2 0
nan nan nan nan nan nan nan nan nan nan nan nan nan nan nan nan nan nan nan nan nan nan nan nan nan nan nan nan nan nan nan nan nan nan nan 0 nan nan nan nan nan nan nan nan nan nan nan nan nan nan nan nan nan nan nan nan nan nan nan nan nan nan nan nan nan nan nan nan nan nan nan nan nan nan nan nan nan nan 0 1 1 0 1 3 3 1
1 1 0 0 0 nan nan nan nan nan nan nan nan nan nan nan nan nan nan nan nan nan nan nan nan nan nan nan nan nan nan nan nan nan nan 0 1 1 0 nan nan nan nan nan nan nan nan nan nan nan nan nan nan nan nan nan nan nan nan nan nan nan nan nan nan nan nan nan nan nan nan nan nan nan nan nan nan nan nan nan nan nan nan nan nan 1
4 6 3 0 0 0 0 0 nan nan nan nan nan nan nan nan nan nan nan nan nan nan nan nan nan nan nan nan nan nan nan nan nan nan nan 0 3 3 2 0 0 0 0 nan nan nan nan nan nan nan nan nan nan nan nan nan nan nan nan nan nan nan 0 0 0 nan nan nan nan nan nan nan nan nan nan nan nan nan nan nan nan nan nan nan nan nan
7 8 7 3 3 1 1 1 0 0 nan nan 0 0 0 nan nan nan nan nan nan nan nan nan nan nan nan nan nan nan nan nan nan nan nan nan 2 2 3 2 2 3 1 1 1 0 nan nan nan nan nan nan nan nan nan nan nan nan nan nan nan nan 0 0 0 nan nan nan nan nan 0 nan nan nan nan nan nan nan nan nan nan nan nan nan nan nan
9 10 8 5 5 2 1 1 0 0 0 0 0 0 0 0 nan nan nan nan nan nan nan nan nan nan nan nan 0 0 nan nan nan nan nan nan 3 3 7 3 3 3 3 2 2 2 0 0 0 nan nan nan nan nan nan nan nan nan nan nan nan nan 0 0 0 nan nan nan nan nan nan nan nan nan nan nan nan nan nan nan nan nan nan nan nan nan
8 7 6 5 5 3 1 1 0 0 0 0 nan nan nan 0 0 0 0 0 0 0 1 1 1 0 nan nan nan nan nan nan nan nan nan nan nan nan 7 4 4 3 6 7 7 3 2 1 1 0 nan nan nan nan nan nan nan nan nan nan nan nan 0 0 0 nan nan nan nan nan nan nan nan nan nan nan nan nan nan nan nan nan nan nan nan nan
10 10 4 4 4 2 2 2 1 1 0 0 1 1 1 1 1 1 2 3 3 3 6 5 5 3 3 nan nan nan nan nan nan nan nan 0 nan nan 10 5 5 4 6 7 7 4 3 3 3 1 0 0 nan nan nan nan nan nan nan nan nan nan nan 0 0 1 1 nan nan nan nan nan nan nan nan nan nan nan nan nan nan nan nan nan nan nan
9 10 7 3 3 2 3 2 2 2 3 2 1 1 1 1 1 1 2 5 5 7 7 8 8 7 6 6 3 3 1 0 nan nan nan nan 0 0 7 5 5 4 5 6 6 5 4 4 4 2 2 1 0 0 0 nan nan nan 0 nan nan nan nan 0 0 1 0 nan nan nan nan nan nan nan nan nan nan nan nan nan nan nan nan nan nan nan
10 12 9 4 4 3 3 1 2 2 3 3 3 3 3 2 1 1 1 3 3 4 4 7 7 5 3 3 3 3 5 2 nan nan nan nan 0 0 1 6 6 4 6 5 5 5 6 5 5 3 3 2 1 1 0 nan nan 0 0 nan nan nan nan nan nan 0 nan nan nan nan nan nan nan nan nan nan nan nan nan nan nan nan nan nan nan nan
9 10 9 8 8 5 4 2 2 2 2 2 6 6 8 3 1 1 1 2 2 3 6 7 7 4 3 2 1 1 4 7 3 3 nan nan nan nan 2 6 6 7 7 6 6 6 6 7 7 5 3 3 2 2 1 0 0 0 0 0 0 1 0 nan nan 0 nan nan 0 0 0 nan nan nan nan nan nan nan nan nan nan nan nan nan nan nan
10 12 11 7 7 4 6 5 3 3 4 6 9 9 11 8 4 4 2 2 2 2 6 6 6 5 5 4 3 3 2 5 8 8 8 5 1 1 2 5 5 8 9 8 8 6 6 7 7 5 3 3 3 3 1 1 1 1 0 1 1 1 1 0 0 0 1 1 0 0 0 nan nan nan nan nan nan nan nan nan nan nan nan nan nan nan
6 4 7 9 9 9 10 10 11 11 10 9 10 10 14 10 7 7 8 4 4 3 4 6 6 3 4 4 4 4 2 1 5 5 8 11 9 9 5 3 3 4 9 9 9 6 7 5 5 3 3 4 3 3 2 1 1 1 1 2 2 2 2 1 1 1 nan nan nan nan 0 nan nan nan nan nan nan nan nan nan nan nan nan nan nan nan
1 2 6 9 9 10 13 14 13 13 9 8 8 8 9 8 7 7 8 9 9 8 6 4 4 3 3 4 4 4 2 2 3 3 4 6 6 6 5 3 3 3 7 10 10 9 6 3 3 4 4 4 3 3 3 3 3 2 2 3 3 2 3 1 1 0 nan nan nan nan 0 nan nan nan nan nan nan nan nan nan nan nan nan nan nan nan
3 5 7 9 9 10 12 16 12 12 7 5 6 6 7 6 7 7 8 11 11 10 9 7 7 4 4 4 3 3 3 2 3 3 5 6 8 8 6 5 5 3 3 10 10 14 10 8 8 6 6 4 3 3 2 3 3 3 3 3 3 2 2 1 1 0 0 nan nan nan 0 nan nan nan nan 0 0 0 nan nan nan nan nan nan nan nan
11 9 8 8 8 8 9 12 11 11 8 3 4 4 7 5 7 7 10 13 13 15 15 9 9 6 4 3 4 4 3 3 3 3 6 7 8 8 10 11 11 7 5 8 8 12 14 11 11 9 9 5 3 3 2 4 4 4 3 2 2 1 0 0 0 0 0 nan nan nan nan nan 0 0 1 1 0 0 nan nan nan nan nan nan nan nan
15 11 8 6 6 5 4 7 8 8 8 8 6 6 6 8 14 14 12 15 15 15 15 11 11 9 6 4 4 4 5 4 4 4 5 5 8 8 10 15 15 15 16 12 12 19 15 13 13 7 5 3 3 3 3 3 3 4 3 1 1 0 nan nan nan nan 0 1 nan nan nan nan 1 1 2 2 0 0 nan nan nan nan nan nan nan nan
13 10 8 5 5 4 3 5 7 7 7 8 7 7 6 6 9 9 13 15 15 16 14 13 13 12 9 6 5 5 6 7 6 6 6 8 10 10 13 15 15 14 17 16 16 15 13 13 13 10 5 1 2 2 2 1 1 2 2 1 1 0 nan nan nan nan 0 2 3 3 0 2 3 3 4 2 1 1 0 nan nan nan nan nan nan nan
10 9 9 7 7 6 4 4 4 4 7 9 9 9 11 11 10 10 15 14 14 12 11 9 9 9 9 8 7 7 6 8 8 8 9 10 12 12 13 13 13 13 11 10 10 7 5 5 5 9 6 1 nan nan 0 1 1 3 3 3 3 1 0 nan nan nan nan 0 3 3 3 5 6 6 5 3 2 2 1 0 0 nan nan nan nan nan
CIN
-0 -0 -0 -0 -0 -0 nan nan -0 -0 nan nan nan nan nan -0 -0 -0 -0 -0 -0 -0 -0 -0 -0 -0 -0 -0 -0 -0 -0 -0 -0 -0 -0 -0 -0 -0 -0 -0 -0 -0 -0 -0 -0 -0 -0 -0 -0 -0 -0 -0 -0 -0 -0 -0 -0 -0 -0 -0 -0 -0 -0 -0 -0 -0 -0 -0 -0 -0 -0 -1 -1 -1 -0 -0 -0 -0 -0 -0 -0 -0 -0 -0 -0 -0
-0 -0 -0 -0 -0 -0 nan nan nan nan nan nan nan nan nan nan nan nan -0 -0 -0 nan -0 -0 -0 -0 -0 -0 -0 -0 -0 -0 -0 -0 -0 -0 -0 -0 -0 -0 -0 -0 -0 -0 -0 -0 -0 -0 -0 -0 -0 -0 -0 -0 -0 -0 -0 -0 -0 -0 -0 -0 -0 -0 -0 -0 -0 -0 -0 -0 -0 -0 -0 -0 -0 -0 -0 -0 -0 -0 -0 -0 -0 -0 -0 -0
-0 -0 -0 -0 -0 nan nan nan nan nan nan nan nan nan nan nan nan nan nan -0 -0 -0 -0 nan nan -0 -0 -0 -0 -0 -0 -0 -0 -0 -0 -0 -0 -0 -0 -0 -0 -0 -0 -0 -0 -0 -0 -0 -0 -0 -0 -0 -0 -0 -0 -0 -0 -0 -0 -0 -0 -0 -0 -0 -0 -0 -0 -0 -0 -0 -0 -0 -0 -0 -0 -0 -0 -0 -0 -0 -0 -0 -0 -0 -0 -0
-0 -0 -0 nan nan nan nan nan nan nan nan nan nan nan nan nan nan nan nan nan nan -0 -0 nan nan nan nan -0 -0 -0 -0 -0 -0 -0 -0 -0 -0 -0 -0 -0 -0 -0 -0 -0 -0 -0 -0 -0 -0 -0 -0 -0 -0 -0 -0 -0 -0 -0 -0 -0 -0 -0 -0 -0 -0 -0 -0 -0 -0 -0 -0 -0 -0 -0 -0 -0 -0 -0 -0 -0 -0 -0 -0 -0 -0 -0
-0 -0 nan nan nan nan nan nan nan nan nan nan nan nan nan nan nan nan nan nan nan nan nan nan nan nan nan nan -0 -0 -0 -0 -0 -0 -0 -0 -0 -0 -0 -0 -0 -0 -0 -0 -0 -0 -0 -0 -0 -0 -0 -0 -0 -0 -0 -0 -0 -0 -0 -0 -0 -0 -0 -0 -0 -0 -0 -0 -0 -0 -0 -0 -0 -0 -0 -0 -0 -0 -0 -0 -0 -0 -0 -0 -0 -0
nan nan nan nan nan nan nan nan nan nan nan nan nan nan nan nan nan nan nan nan nan nan nan nan nan nan nan nan nan nan nan nan nan nan -0 -0 -0 -0 -0 -0 -0 -0 -0 -0 -0 -0 -0 -0 -0 -0 -0 -0 -0 -0 -0 -0 -0 -0 -0 -0 -0 -0 -0 -0 -0 -0 -0 -0 -0 -0 -0 -0 -0 -0 -0 -0 -0 -0 -0 -0 -0 -0 -0 -0 -0 -0
nan nan nan nan nan nan nan nan nan nan nan nan nan nan nan nan nan nan nan nan nan nan nan nan nan nan nan nan nan nan nan nan nan nan nan -0 -0 -0 -0 -0 -0 -0 -0 -0 -0 -0 -0 -0 -0 -0 -0 -0 -0 -0 -0 -0 -0 -0 -0 -0 -0 -0 -0 -0 -0 -0 -0 -0 -0 -0 -0 -0 -0 -0 -0 -0 -0 -0 -0 -0 -0 -0 -0 -0 -0 -0
nan nan nan nan nan nan nan nan nan nan nan nan nan nan nan nan nan nan nan nan nan nan nan nan nan nan nan nan nan nan nan nan nan nan nan nan nan nan -0 -0 -0 -0 -0 -0 -0 -0 -0 -0 -0 -0 -0 -0 -0 -0 -0 -0 -0 -0 -0 -0 -0 -0 -0 -0 -0 -0 -0 -0 -0 -0 -0 -0 -0 -0 -0 -0 -0 -0 -0 -0 -0 -0 -0 -0 -0 -0
nan nan nan nan nan nan nan nan nan nan nan nan nan nan nan nan nan nan nan nan nan nan nan nan nan nan nan nan nan nan nan nan nan nan nan nan nan nan -0 -0 -0 -0 -0 -0 -0 -0 -0 -0 -0 -0 -0 -0 -0 -0 -0 -0 -0 -0 -0 -0 -0 -0 -0 -0 -0 -0 -0 -0 -0 -0 -0 -0 -0 -0 -0 -0 -0 -0 -0 -0 -0 -0 -0 -0 -0 -0
nan nan nan nan nan nan nan nan nan nan nan nan nan nan nan nan nan nan nan nan nan nan nan nan nan nan nan nan nan nan nan nan nan nan nan nan nan nan nan nan nan -0 -0 -0 -0 -0 -0 -0 -0 -0 -0 -0 -0 -0 -0 -0 -0 -0 -0 -0 -0 -0 -0 -0 -0 -0 -0 -0 -0 -0 -0 -0 -0 -0 -0 -0 -0 -0 -0 -0 -0 -0 -0 -0 -0 -0
nan nan nan nan nan nan nan nan nan nan nan nan nan nan nan nan nan nan nan nan nan nan nan nan nan nan nan nan nan nan nan nan nan nan nan nan nan nan nan nan nan nan nan -0 -0 -0 -0 -0 -0 -0 -0 -0 -0 -0 -0 -0 -0 -1 -1 -0 -0 -0 -0 -0 -0 -0 -0 -0 -0 -0 -0 -0 -0 -0 -0 -0 -0 -0 -0 -0 -0 -0 -0 -0 -0 -0
nan nan nan nan nan nan nan nan nan nan nan nan nan nan nan nan nan nan nan nan nan nan nan nan nan nan nan nan nan nan nan nan nan nan nan nan nan nan nan nan nan nan nan nan nan nan -0 -0 -0 -0 -0 -0 -0 -0 -0 -0 -0 -1 -0 -0 -0 -0 -0 -0 -0 -0 -0 -0 -0 -0 -0 -0 -0 -0 nan nan nan nan nan nan nan -0 -0 -0 -0 -0
nan nan nan nan nan nan nan nan nan nan nan nan nan nan nan nan nan nan nan nan nan nan nan nan nan nan nan nan nan nan nan nan nan nan nan nan nan nan nan nan nan nan nan nan nan nan nan -0 -0 -0 -0 -0 -0 -0 nan nan nan nan -0 -0 -0 -0 -0 -0 -0 -0 -0 -0 -0 -0 -0 -0 -0 -0 nan nan nan nan nan nan nan nan nan -0 -0 -0
nan nan nan nan nan nan nan nan nan nan nan nan nan nan nan nan nan nan nan nan nan nan nan nan nan nan nan nan nan nan nan nan nan nan nan nan nan nan nan nan nan nan nan nan nan nan nan nan nan nan -0 -0 -0 -0 -0 nan nan nan nan nan nan nan -0 -0 -0 -0 -0 -0 -0 -0 -0 nan nan nan nan nan nan nan nan nan nan nan nan nan nan -0
nan nan nan nan nan nan nan nan nan nan nan nan nan nan nan nan nan nan nan nan nan nan nan nan nan nan nan nan nan nan nan nan nan nan nan nan nan nan nan nan nan nan nan nan nan nan nan nan nan nan nan nan -0 -0 nan -0 -0 nan nan nan nan nan nan nan nan nan -0 nan nan nan nan nan nan nan nan nan nan nan nan nan nan nan nan nan nan nan
nan nan nan nan nan nan nan nan nan nan nan nan nan nan nan nan nan nan nan nan nan nan nan nan nan nan nan nan nan nan nan nan nan nan nan nan nan nan nan nan nan nan nan nan nan nan nan nan nan nan nan nan nan nan nan -0 -0 nan nan nan nan nan nan nan nan nan nan nan nan nan nan nan nan nan nan nan nan nan nan nan nan nan nan nan nan nan
nan nan nan nan nan nan nan nan nan nan nan nan nan nan nan nan nan nan nan nan nan nan nan nan nan nan nan nan nan nan nan nan nan nan nan nan nan nan nan nan nan nan nan nan nan nan nan nan nan nan nan nan nan nan nan nan nan nan nan nan nan nan nan nan nan nan nan nan nan nan nan nan nan nan nan nan nan nan nan nan nan nan nan nan nan nan
nan nan nan nan nan nan nan nan nan nan nan nan nan nan nan nan nan nan nan nan nan nan nan nan nan nan nan nan nan nan nan nan nan nan nan nan nan nan nan nan nan nan nan nan nan nan nan nan nan nan nan nan nan nan nan nan nan nan nan nan nan nan nan nan nan nan nan nan nan nan nan nan nan nan nan nan nan nan nan nan nan nan nan nan nan nan
nan nan nan nan nan nan nan nan nan nan nan nan nan nan nan nan nan nan nan nan nan nan nan nan nan nan nan nan nan nan nan nan nan nan nan nan nan nan nan nan nan nan nan nan nan nan nan nan nan nan nan nan nan nan nan nan nan nan nan nan nan nan nan nan nan nan nan nan nan nan nan nan nan nan nan nan nan nan nan nan nan nan nan nan nan nan
nan nan nan nan nan nan nan nan nan nan nan nan nan nan nan nan nan nan nan nan nan nan nan nan nan nan nan nan nan nan nan nan nan nan nan nan nan nan nan nan nan nan nan nan nan nan nan nan nan nan nan nan nan nan nan nan nan nan nan nan nan nan nan nan nan nan nan nan nan nan nan nan nan nan nan nan nan nan nan nan nan nan nan nan nan nan
nan nan nan nan nan nan nan nan nan nan nan nan nan nan nan nan nan nan nan nan nan nan nan nan nan nan nan nan nan nan nan nan nan nan nan nan nan nan nan nan nan nan nan nan nan nan nan nan nan nan nan nan nan nan nan nan nan nan nan nan nan nan nan nan nan nan nan nan nan nan nan nan nan nan nan nan nan nan nan nan nan nan nan nan nan nan
nan nan nan nan nan nan nan nan nan nan nan nan nan nan nan nan nan nan nan nan nan nan nan nan nan nan nan nan nan nan nan nan nan nan nan nan nan nan nan nan nan nan nan nan nan nan nan nan nan nan nan nan nan nan nan nan nan nan nan nan nan nan nan nan nan nan nan nan nan nan nan nan nan nan nan nan nan nan nan nan nan nan nan nan nan nan
nan nan nan nan nan nan nan nan nan nan nan nan nan nan nan nan nan nan nan nan nan nan nan nan nan nan nan nan nan nan nan nan nan nan nan nan nan nan nan nan nan nan nan nan nan nan nan nan nan nan nan nan nan nan nan nan nan nan nan nan nan nan nan nan nan nan nan nan nan nan nan nan nan nan nan nan nan nan nan nan nan nan nan nan nan nan
nan nan nan nan nan nan nan nan nan nan nan nan nan nan nan nan nan nan nan nan nan nan nan nan nan nan nan nan nan nan nan nan nan nan nan nan nan nan nan nan nan nan nan nan nan nan nan nan nan nan nan nan nan nan nan nan nan nan nan nan nan nan nan nan nan nan nan nan nan nan nan nan nan nan nan nan nan nan nan nan nan nan nan nan nan nan
nan nan nan nan nan nan nan nan nan nan nan nan nan nan nan nan nan nan nan nan nan nan nan nan nan nan nan nan nan nan nan nan nan nan nan nan nan nan nan nan nan nan nan nan nan nan nan nan nan nan nan nan nan nan nan nan nan nan nan nan nan nan nan nan nan nan nan nan nan nan nan nan nan nan nan nan nan nan nan nan nan nan nan nan nan nan
-0 -0 -0 -0 -0 -0 -0 -0 nan nan nan nan nan nan nan nan nan nan nan nan nan nan nan nan nan nan nan nan nan nan nan nan nan nan nan nan nan nan nan nan nan nan nan nan nan nan nan nan nan nan nan nan nan nan nan nan nan nan nan nan nan nan nan nan nan nan nan nan nan nan -0 -0 -0 -0 -0 -0 -0 -0 -0 -0 -0 nan nan nan nan nan
-0 -0 -0 -0 -0 -0 -0 -0 -0 -0 nan nan nan nan nan nan nan nan nan nan nan nan nan nan nan nan nan nan nan nan nan nan nan nan nan nan nan nan nan nan nan nan nan nan nan nan nan nan nan nan nan nan nan nan nan nan nan nan nan nan nan nan nan nan nan nan nan -0 -0 -0 -0 -0 -0 -0 -0 -0 -0 -0 -0 -0 -0 -0 nan nan nan nan
nan nan nan nan nan nan nan nan nan nan nan nan nan nan nan nan nan nan nan nan nan nan nan nan nan nan nan nan nan nan nan nan nan nan nan nan nan nan nan nan nan nan nan nan nan nan nan nan nan nan nan nan nan nan nan nan nan nan nan nan nan nan nan nan nan nan nan -0 -0 -0 -0 -0 -0 -0 -0 -0 -0 -0 -0 -0 -0 -0 nan nan nan nan
nan nan nan nan nan nan nan nan nan nan nan nan nan nan nan nan nan nan nan nan nan nan nan nan nan nan nan nan nan nan nan nan nan nan nan nan nan nan nan nan nan nan nan nan nan nan nan nan nan nan nan nan nan nan nan nan nan nan nan nan nan nan nan nan nan nan nan -0 -0 -0 -0 -0 -0 -0 -0 -0 -0 -0 -0 -0 -0 -0 -0 nan nan nan
nan nan nan nan nan nan nan nan nan nan nan nan nan nan nan nan nan nan nan nan nan nan nan nan nan nan nan nan nan nan nan nan nan nan nan nan nan nan nan nan nan nan nan nan nan nan nan nan nan nan nan nan nan nan nan nan nan nan nan nan nan nan nan nan nan nan nan -0 -0 -0 -0 -0 -0 -0 -0 -0 -0 -0 -0 -0 -0 -0 -0 nan nan nan
nan nan nan nan nan nan nan nan nan nan nan nan nan nan nan nan nan nan nan nan nan nan nan nan nan nan nan nan nan nan nan nan nan nan nan nan nan nan nan nan nan nan nan nan nan nan nan nan nan nan nan nan nan nan nan nan nan nan nan nan nan nan nan nan nan nan nan nan -0 -0 -0 -0 -0 -0 -0 -0 -0 -0 -0 -0 -0 -0 -0 -0 -0 nan
nan nan nan nan nan nan nan nan nan nan nan nan nan nan nan nan nan nan nan nan nan nan nan nan nan nan nan nan nan nan nan nan nan nan nan nan nan nan nan nan nan nan nan nan nan nan nan nan nan nan nan nan nan nan nan nan nan nan nan nan nan nan nan nan nan nan nan nan nan nan nan nan nan nan nan -0 -0 -0 -0 -0 -0 -0 -0 -0 -0 nan
nan nan nan nan nan nan nan nan nan nan nan nan nan nan nan nan nan nan nan nan nan nan nan nan nan nan nan nan nan nan nan nan nan nan nan nan nan nan nan nan nan nan nan nan nan nan nan nan nan nan nan nan nan nan nan nan nan nan nan nan nan nan nan nan nan nan nan nan nan nan nan nan nan nan nan nan -0 -0 -0 -0 -0 -0 -0 -0 -0 -0
nan nan nan nan nan nan nan nan nan nan nan nan nan nan nan nan nan nan nan nan nan nan nan nan nan nan nan nan nan nan nan nan nan nan nan -0 nan nan nan nan nan nan nan nan nan nan nan nan nan nan nan nan nan nan nan nan nan nan nan nan nan nan nan nan nan nan nan nan nan nan nan nan nan nan nan nan nan nan -0 -0 -0 -0 -0 -0 -0 -0
-0 -0 -0 -0 -0 nan nan nan nan nan nan nan nan nan nan nan nan nan nan nan nan nan nan nan nan nan nan nan nan nan nan nan nan nan nan -0 -0 -0 -0 nan nan nan nan nan nan nan nan nan nan nan nan nan nan nan nan nan nan nan nan nan nan nan nan nan nan nan nan nan nan nan nan nan nan nan nan nan nan nan nan nan nan nan nan nan nan -0
-0 -0 -0 -0 -0 -0 -0 -0 nan nan nan nan nan nan nan nan nan nan nan nan nan nan nan nan nan nan nan nan nan nan nan nan nan nan nan -0 -0 -0 -0 -0 -0 -0 -0 nan nan nan nan nan nan nan nan nan nan nan nan nan nan nan nan nan nan nan -0 -0 -0 nan nan nan nan nan nan nan nan nan nan nan nan nan nan nan nan nan nan nan nan nan
-0 -0 -0 -0 -0 -0 -0 -0 -0 -0 nan nan -0 -0 -0 nan nan nan nan nan nan nan nan nan nan nan nan nan nan nan nan nan nan nan nan nan -0 -0 -0 -0 -0 -0 -0 -0 -0 -0 nan nan nan nan nan nan nan nan nan nan nan nan nan nan nan nan -0 -0 -0 nan nan nan nan nan -0 nan nan nan nan nan nan nan nan nan nan nan nan nan nan nan
-0 -0 -0 -0 -0 -0 -0 -0 -0 -0 -0 -0 -0 -0 -0 -0 nan nan nan nan nan nan nan nan nan nan nan nan -0 -0 nan nan nan nan nan nan -1 -1 -0 -0 -0 -0 -0 -0 -0 -0 -0 -0 -0 nan nan nan nan nan nan nan nan nan nan nan nan nan -0 -0 -0 nan nan nan nan nan nan nan nan nan nan nan nan nan nan nan nan nan nan nan nan nan
-0 -0 -0 -0 -0 -0 -0 -0 -0 -0 -0 -0 nan nan nan -0 -0 -0 -0 -0 -0 -0 -0 -0 -0 -0 nan nan nan nan nan nan nan nan nan nan nan nan -0 -0 -0 -0 -0 -0 -0 -0 -0 -0 -0 -0 nan nan nan nan nan nan nan nan nan nan nan nan -0 -0 -0 nan nan nan nan nan nan nan nan nan nan nan nan nan nan nan nan nan nan nan nan nan
-0 -0 -0 -0 -0 -0 -0 -0 -0 -0 -0 -0 -0 -0 -0 -0 -0 -0 -0 -0 -0 -0 -0 -0 -0 -0 -0 nan nan nan nan nan nan nan nan -0 nan nan -0 -0 -0 -0 -0 -0 -0 -0 -0 -0 -0 -0 -0 -0 nan nan nan nan nan nan nan nan nan nan nan -0 -0 -0 -0 nan nan nan nan nan nan nan nan nan nan nan nan nan nan nan nan nan nan nan
-0 -0 -0 -0 -0 -0 -0 -0 -0 -0 -0 -0 -0 -0 -0 -0 -0 -0 -0 -0 -0 -0 -0 -0 -0 -0 -0 -0 -0 -0 -0 -1 nan nan nan nan -0 -0 -0 -0 -0 -0 -0 -0 -0 -0 -0 -0 -0 -0 -0 -0 -0 -0 -0 nan nan nan -0 nan nan nan nan -0 -0 -0 -0 nan nan nan nan nan nan nan nan nan nan nan nan nan nan nan nan nan nan nan
-0 -0 -0 -0 -0 -0 -0 -0 -0 -0 -0 -0 -0 -0 -0 -0 -0 -0 -0 -0 -0 -0 -0 -0 -0 -0 -0 -0 -0 -0 -0 -0 nan nan nan nan -0 -0 -5 -0 -0 -0 -0 -0 -0 -0 -0 -0 -0 -0 -0 -0 -0 -0 -0 nan nan -0 -0 nan nan nan nan nan nan -0 nan nan nan nan nan nan nan nan nan nan nan nan nan nan nan nan nan nan nan nan
-0 -0 -0 -0 -0 -0 -0 -0 -0 -0 -0 -0 -0 -0 -0 -0 -0 -0 -0 -0 -0 -0 -0 -0 -0 -0 -0 -0 -0 -0 -0 -0 -0 -0 nan nan nan nan -4 -0 -0 -0 -0 -0 -0 -0 -0 -0 -0 -0 -0 -0 -0 -0 -0 -0 -0 -0 -0 -0 -0 -0 -0 nan nan -0 nan nan -0 -0 -0 nan nan nan nan nan nan nan nan nan nan nan nan nan nan nan
-0 -0 -0 -0 -0 -0 -0 -0 -0 -0 -0 -0 -0 -0 -0 -0 -0 -0 -0 -0 -0 -0 -0 -0 -0 -0 -0 -0 -0 -0 -0 -0 -0 -0 -0 -0 -5 -5 -4 -0 -0 -0 -0 -0 -0 -0 -0 -0 -0 -0 -0 -0 -0 -0 -0 -0 -0 -0 -0 -0 -0 -0 -0 -0 -0 -0 -0 -0 -0 -0 -0 nan nan nan nan nan nan nan nan nan nan nan nan nan nan nan
-0 -0 -0 -0 -0 -0 -0 -0 -0 -0 -0 -0 -0 -0 -0 -0 -0 -0 -0 -0 -0 -0 -0 -0 -0 -0 -0 -0 -0 -0 -0 -0 -0 -0 -0 -0 -0 -0 -1 -1 -1 -0 -0 -0 -0 -0 -0 -0 -0 -0 -0 -0 -0 -0 -0 -0 -0 -0 -0 -0 -0 -0 -0 -0 -0 -0 nan nan nan nan -0 nan nan nan nan nan nan nan nan nan nan nan nan nan nan nan
-0 -0 -0 -0 -0 -0 -0 -0 -0 -0 -0 -0 -0 -0 -0 -0 -0 -0 -0 -0 -0 -0 -0 -0 -0 -0 -0 -0 -0 -0 -0 -0 -0 -0 -0 -0 -1 -1 -2 -2 -2 -1 -0 -0 -0 -0 -0 -0 -0 -0 -0 -0 -0 -0 -0 -0 -0 -0 -0 -0 -0 -0 -0 -0 -0 -0 nan nan nan nan -0 nan nan nan nan nan nan nan nan nan nan nan nan nan nan nan
-0 -0 -0 -0 -0 -0 -0 -0 -0 -0 -0 -0 -0 -0 -0 -0 -0 -0 -0 -0 -0 -0 -0 -0 -0 -0 -0 -0 -0 -0 -0 -0 -0 -0 -0 -0 -0 -0 -0 -2 -2 -5 -2 -0 -0 -0 -0 -0 -0 -0 -0 -0 -0 -0 -0 -0 -0 -0 -0 -0 -0 -0 -0 -0 -0 -0 -0 nan nan nan -0 nan nan nan nan -0 -0 -0 nan nan nan nan nan nan nan nan
-0 -0 -0 -0 -0 -0 -0 -0 -0 -0 -0 -0 -0 -0 -0 -0 -0 -0 -0 -0 -0 -0 -0 -0 -0 -0 -0 -0 -0 -0 -0 -0 -0 -0 -0 -0 -0 -0 -0 -0 -0 -2 -5 -2 -2 -0 -0 -0 -0 -0 -0 -0 -0 -0 -0 -0 -0 -0 -0 -0 -0 -0 -0 -0 -0 -0 -0 nan nan nan nan nan -0 -0 -0 -0 -0 -0 nan nan nan nan nan nan nan nan
-0 -0 -0 -0 -0 -0 -0 -0 -0 -0 -0 -0 -0 -0 -0 -0 -0 -0 -0 -0 -0 -0 -0 -0 -0 -0 -0 -0 -0 -0 -0 -0 -0 -0 -0 -0 -0 -0 -0 -0 -0 -0 -0 -0 -0 -0 -0 -0 -0 -0 -0 -0 -0 -0 -0 -0 -0 -0 -0 -0 -0 -0 nan nan nan nan -0 -0 nan nan nan nan -0 -0 -0 -0 -0 -0 nan nan nan nan nan nan nan nan
-0 -0 -0 -0 -0 -0 -0 -0 -0 -0 -0 -0 -0 -0 -0 -0 -0 -0 -0 -0 -0 -0 -0 -0 -0 -0 -0 -0 -0 -0 -0 -0 -0 -0 -0 -0 -0 -0 -0 -0 -0 -0 -0 -0 -0 -0 -0 -0 -0 -0 -0 -0 -0 -0 -0 -0 -0 -0 -0 -0 -0 -0 nan nan nan nan -0 -0 -5 -5 -0 -0 -0 -0 -0 -0 -0 -0 -0 nan nan nan nan nan nan nan
-0 -0 -0 -0 -0 -0 -0 -0 -0 -0 -0 -0 -0 -0 -0 -0 -0 -0 -0 -0 -0 -0 -0 -0 -0 -0 -0 -0 -0 -0 -0 -0 -0 -0 -0 -0 -0 -0 -0 -0 -0 -0 -0 -0 -0 -0 -0 -0 -0 -0 -0 -2 nan nan -0 -0 -0 -0 -0 -0 -0 -0 -0 nan nan nan nan -0 -0 -0 -0 -0 -0 -0 -0 -0 -0 -0 -0 -0 -0 nan nan nan nan nan
Wind_Speed
1 1 1 2 2 2 2 3 3 4 3 3 4 4 4 4 4 4 6 6 6 6 5 5 6 7 9 13 16 17 17 17 17 18 18 18 18 18 19 19 19 20 20 20 21 21 21 22 22 23 23 23 24 24 24 25 25 25 26 26 27 28 28 29 29 29 29 29 28 27 26 25 25 25 25 25 25 25 25 25 25 25 24 24 23 23
2 1 1 2 2 2 2 2 3 3 3 4 4 4 4 5 4 4 4 5 5 6 5 5 5 6 8 10 13 16 16 17 17 17 17 17 17 18 18 18 19 19 19 20 20 20 20 21 21 21 22 22 23 23 23 24 24 25 25 25 26 27 27 27 28 28 29 29 29 28 27 26 25 24 24 24 24 24 24 25 25 25 26 25 25 25
2 2 2 1 2 2 2 2 2 3 3 3 3 4 4 5 4 3 3 4 4 4 4 4 4 5 6 7 10 14 15 16 16 16 17 17 17 17 17 18 18 18 19 19 19 20 20 20 20 20 20 21 21 22 22 22 23 23 24 24 25 25 26 26 26 27 27 28 28 28 28 27 27 26 24 24 23 23 23 23 24 24 25 25 25 26
2 2 2 1 1 2 2 2 2 2 3 3 3 4 4 4 3 3 3 3 3 3 3 4 4 4 4 5 7 10 13 14 15 15 16 16 16 16 17 17 17 18 18 18 19 19 19 19 20 20 20 20 20 20 21 21 22 22 22 23 23 24 24 24 25 25 26 26 26 27 27 28 28 27 26 25 24 23 23 23 23 23 23 24 24 24
3 2 2 1 1 2 2 2 2 2 3 3 3 3 3 3 3 3 3 3 3 3 3 4 4 4 3 4 5 8 10 12 12 13 14 15 15 15 16 16 16 17 17 18 18 18 19 19 19 19 19 19 19 19 20 20 20 21 21 21 21 22 22 23 23 23 24 24 25 25 26 26 27 27 27 26 25 25 24 23 23 23 23 23 22 22
3 2 2 1 1 1 1 2 2 2 2 2 2 2 2 2 2 2 3 3 3 3 3 3 3 3 3 4 5 6 8 9 10 11 12 13 14 14 15 15 15 16 16 17 17 17 18 18 18 18 19 19 19 19 19 19 19 19 19 19 20 20 20 21 21 22 22 22 23 24 24 25 25 26 26 26 26 25 25 24 24 23 23 23 22 22
2 2 2 2 1 1 1 2 2 2 2 2 2 2 2 2 1 2 2 3 3 3 3 2 2 2 3 3 4 5 6 7 8 9 10 11 12 12 13 14 15 15 16 16 16 16 17 17 17 17 18 18 18 18 18 18 18 18 18 18 18 18 19 19 19 20 20 21 21 22 22 23 23 24 24 25 25 25 25 25 24 24 23 23 23 22
2 3 2 2 2 2 2 2 2 2 1 2 2 2 2 1 1 1 1 2 2 3 3 3 2 2 2 3 3 4 4 5 5 6 7 8 9 10 11 12 13 14 15 15 16 16 16 16 16 16 17 17 17 17 17 17 17 17 17 17 17 17 17 17 18 18 18 19 19 20 20 21 21 22 22 23 24 24 24 24 24 23 23 23 23 22
2 3 3 3 3 2 2 2 2 1 1 1 2 2 2 2 2 1 1 1 1 2 3 3 3 3 3 3 3 3 4 4 5 5 6 6 7 8 9 10 11 13 14 15 15 16 16 16 16 16 16 16 16 16 15 15 15 15 16 16 16 16 16 16 16 17 17 17 18 18 18 19 19 20 20 21 21 22 22 22 22 22 22 21 21 21
2 3 3 3 2 2 2 2 1 1 0 1 1 2 2 2 2 2 1 1 1 1 2 3 3 3 3 3 3 3 3 3 4 5 6 6 6 7 7 7 8 10 12 13 14 15 16 16 16 16 16 15 15 15 14 14 14 14 14 14 15 15 15 15 15 16 16 16 16 16 17 17 17 17 18 18 19 19 19 20 20 20 20 19 19 19
3 3 2 2 2 2 2 1 0 0 0 1 2 2 2 1 2 2 2 1 1 1 1 2 3 3 3 3 3 3 3 3 3 3 4 5 6 6 6 6 6 8 10 11 12 14 15 16 16 16 16 16 15 15 14 14 13 13 13 13 14 14 14 14 14 15 15 15 15 15 15 15 16 16 16 16 16 17 17 17 17 18 18 17 17 17
2 2 2 2 2 2 2 2 1 1 1 2 2 2 2 1 0 2 3 2 2 2 2 1 2 2 3 3 3 3 3 3 3 3 3 4 4 4 4 4 5 6 7 8 10 11 13 14 15 16 16 16 16 16 15 15 14 14 14 14 14 14 13 14 14 14 14 14 14 14 14 15 15 15 15 15 15 15 15 15 15 15 16 15 15 15
2 2 2 2 2 2 2 2 2 2 2 2 2 2 1 1 0 1 2 2 2 2 2 1 1 1 2 2 3 3 3 3 3 2 2 3 3 4 4 3 3 4 4 5 6 7 10 11 13 14 15 15 15 15 16 16 16 16 15 15 15 14 14 14 14 14 14 14 14 14 14 14 14 14 14 14 14 14 14 14 14 14 14 14 14 14
2 2 2 2 2 2 2 2 2 2 2 2 1 1 1 1 0 1 2 2 1 1 2 2 1 0 1 1 2 3 3 3 2 2 2 3 3 4 4 3 3 3 3 4 4 5 7 7 8 10 13 14 14 14 14 15 16 16 16 16 16 15 15 15 15 14 14 14 14 14 14 14 14 14 14 14 14 14 14 14 14 14 14 14 14 13
3 3 3 3 3 2 2 2 2 2 1 1 0 0 1 1 1 2 2 2 1 1 2 2 2 1 1 1 1 2 3 3 3 2 2 2 3 4 4 3 3 3 3 3 4 5 6 6 6 7 9 12 13 13 13 14 15 15 15 15 15 15 15 15 15 15 15 14 14 14 14 14 14 14 14 14 14 14 14 14 14 14 14 14 13 13
3 3 3 3 3 2 1 1 1 2 1 1 0 1 1 2 2 2 2 2 2 2 2 3 2 1 1 2 2 2 3 3 3 2 2 2 2 3 4 3 3 3 3 3 3 4 5 5 5 6 8 11 13 13 13 13 14 15 15 15 15 15 15 15 15 15 14 14 14 14 14 14 14 14 14 14 14 14 14 14 13 13 13 13 12 12
2 3 3 3 2 1 1 1 1 1 1 1 1 1 2 2 2 2 2 2 2 2 2 2 2 2 1 2 2 2 2 3 3 2 2 1 2 3 4 4 3 3 3 3 3 4 4 4 5 6 7 10 12 13 13 13 14 14 14 14 14 14 14 14 14 14 14 14 13 13 13 13 13 13 13 13 13 13 13 13 12 12 12 11 11 11
2 3 2 2 2 1 0 1 1 1 1 1 1 1 1 1 1 2 2 2 2 2 2 2 2 2 2 0 2 3 3 3 3 3 2 1 1 2 3 3 3 2 2 3 3 3 4 4 5 6 7 10 12 12 13 13 13 13 14 14 14 14 14 14 14 13 13 13 13 13 13 13 13 12 12 12 12 12 12 12 11 11 11 11 10 10
3 3 2 2 2 1 0 0 0 0 1 1 1 1 1 1 1 2 2 2 2 2 3 2 2 2 2 1 2 3 3 3 3 3 3 2 1 2 2 3 3 2 2 2 3 3 3 4 5 7 9 11 12 12 12 12 13 13 13 14 14 14 14 14 13 13 13 13 12 12 12 12 12 12 12 11 11 11 11 11 11 11 11 10 10 10
3 2 2 2 1 1 1 1 0 0 1 1 1 2 2 1 1 2 2 2 2 2 2 3 2 2 2 1 2 3 3 2 3 3 3 2 1 1 2 3 3 2 1 2 2 3 3 3 4 6 9 10 11 11 11 12 12 12 13 13 13 13 14 14 13 13 13 13 12 12 12 12 11 11 11 11 10 10 10 10 10 10 10 10 10 10
3 2 1 1 1 1 0 1 2 2 2 1 2 2 2 2 2 2 1 1 1 2 2 2 2 2 2 2 2 3 3 3 3 3 2 2 1 1 1 2 3 3 2 1 2 2 3 3 3 4 7 9 10 10 11 11 11 12 12 12 13 13 13 13 13 13 13 13 13 12 12 12 11 11 11 10 10 10 10 9 9 9 9 9 9 9
2 1 2 2 2 1 2 3 3 3 3 2 2 2 2 2 2 2 2 2 2 2 2 2 2 2 2 2 2 2 2 2 2 3 3 3 2 1 1 2 3 3 3 2 1 2 2 2 3 4 6 8 9 10 10 10 11 11 11 12 12 12 12 13 13 13 13 13 13 13 12 12 11 11 10 10 10 9 9 9 9 8 8 8 8 9
2 3 3 3 3 3 3 3 4 3 3 2 2 2 2 2 3 3 3 3 2 2 2 2 1 1 1 1 1 1 2 1 2 2 3 3 2 1 2 2 2 3 3 2 2 2 2 2 2 3 5 8 9 9 9 10 10 10 11 11 11 11 12 12 12 12 12 12 12 12 12 11 11 11 10 10 9 9 9 8 8 7 7 7 7 7
4 4 4 3 3 3 3 3 3 3 2 2 2 2 2 2 2 2 2 2 2 1 1 1 1 2 2 1 1 0 2 1 1 2 2 3 2 2 2 2 2 3 3 2 2 2 3 2 2 2 2 6 7 8 9 9 9 10 10 10 10 11 11 11 11 11 11 11 11 11 11 11 10 10 10 9 9 9 8 8 7 7 6 6 6 6
5 4 4 4 4 4 4 4 4 3 3 2 2 2 1 1 1 0 1 1 1 1 2 2 3 2 1 1 1 0 2 2 1 2 2 3 2 2 1 1 2 3 3 3 2 2 3 3 2 1 1 3 5 7 8 8 9 9 9 10 10 10 10 10 10 10 10 10 10 10 10 10 9 9 9 9 8 8 8 7 7 6 6 5 5 5
7 6 6 6 6 6 7 7 6 6 4 3 2 2 1 1 1 1 1 1 1 1 2 3 3 3 1 1 1 0 1 2 1 1 2 2 3 2 1 1 2 3 4 3 3 2 3 3 2 2 2 2 3 5 6 7 8 8 9 9 9 9 9 9 9 10 10 10 9 9 9 9 9 9 8 8 8 8 7 7 6 6 5 5 5 4
9 9 9 8 8 8 9 9 8 7 7 5 4 2 2 2 2 2 2 1 2 2 3 3 3 3 2 2 1 0 1 1 1 1 2 2 3 2 1 2 2 3 4 3 3 3 3 3 3 2 2 2 2 3 5 6 6 7 8 8 8 9 9 9 9 9 9 9 9 9 8 8 8 8 8 8 8 7 7 7 6 6 5 4 4 4
9 9 9 9 9 9 9 9 9 8 8 7 5 4 2 2 2 3 3 3 3 3 3 3 3 3 3 2 2 1 1 1 1 2 2 2 3 2 2 2 2 3 3 3 3 3 3 3 3 3 2 2 2 2 3 4 5 6 6 7 8 8 8 8 8 8 8 8 8 8 8 8 8 8 8 8 7 7 7 7 6 5 5 4 4 3
6 6 7 7 7 7 7 7 7 8 8 7 6 5 3 3 3 3 4 4 3 3 3 3 3 3 3 3 3 2 1 0 1 2 2 2 2 2 2 2 2 2 3 3 3 3 3 3 3 2 2 2 3 3 2 3 3 4 5 6 6 6 7 7 7 7 7 7 7 7 7 7 8 7 7 7 7 7 7 6 6 5 4 4 4 3
3 4 4 5 5 5 5 5 5 6 7 7 6 5 4 4 3 3 3 3 3 3 3 3 3 3 3 3 3 2 1 1 2 3 2 2 2 2 2 2 2 2 2 3 3 3 2 2 2 2 2 2 3 3 3 3 3 3 3 5 5 5 5 6 6 6 6 6 6 6 6 7 7 7 7 7 7 7 7 6 6 5 4 4 4 3
3 3 3 3 3 3 3 3 3 4 5 5 5 4 3 3 3 3 3 3 3 3 4 4 4 4 3 3 3 2 1 2 3 3 2 2 2 2 2 3 2 2 2 2 3 3 2 1 1 1 1 2 3 3 3 3 3 3 3 4 4 4 5 5 5 5 4 4 5 5 5 6 6 6 6 6 6 6 6 6 5 5 4 4 4 4
3 3 2 2 2 2 2 2 2 2 3 3 4 3 3 3 3 3 3 3 3 3 3 4 4 4 4 3 3 3 2 2 3 3 3 2 2 2 2 3 3 2 1 1 2 3 3 2 1 0 1 2 2 2 3 3 2 3 3 3 4 4 4 4 4 4 3 3 3 4 4 4 5 5 5 6 6 6 6 6 5 5 4 4 4 4
3 2 2 2 2 2 2 2 2 2 2 3 3 3 3 3 3 3 3 3 3 2 2 3 3 4 4 4 4 3 3 2 3 4 3 2 2 2 2 3 3 3 2 2 2 2 3 3 3 2 2 2 2 2 2 2 2 2 3 3 4 4 4 4 4 3 3 3 3 2 3 3 3 4 4 5 5 5 5 5 5 5 5 4 4 4
2 2 2 1 1 1 2 2 2 2 2 3 3 3 3 3 3 3 3 2 2 2 2 1 2 3 4 4 4 3 3 2 3 4 3 2 3 3 3 3 3 3 3 2 2 2 3 3 3 3 3 3 2 2 2 2 2 2 3 3 4 4 4 3 3 3 3 3 2 2 2 2 2 3 3 3 4 4 5 5 6 6 6 5 4 4
2 2 1 1 1 1 1 1 2 2 2 3 3 3 3 3 3 4 4 3 2 2 2 1 0 1 2 3 3 4 4 3 3 4 3 3 3 3 3 3 3 3 3 3 3 3 3 3 3 3 3 3 3 2 1 1 2 2 3 3 3 4 3 3 3 3 3 3 3 2 2 1 2 2 2 3 4 4 5 6 6 6 6 6 5 5
2 2 1 1 1 1 1 1 1 1 2 2 2 2 3 3 3 3 3 3 3 2 1 0 0 1 1 2 3 4 4 4 4 4 3 3 3 3 3 3 3 3 3 4 3 3 3 3 4 4 4 4 3 2 1 1 1 2 3 3 3 3 3 3 3 3 3 3 3 3 2 2 2 2 2 3 4 5 5 5 6 6 6 6 6 6
2 2 1 1 1 1 1 1 1 1 1 1 2 2 2 2 3 3 3 3 3 3 3 2 1 1 2 2 2 3 4 4 4 4 4 3 3 3 4 3 3 3 4 4 4 4 4 4 4 4 4 3 3 2 2 2 2 2 3 3 3 3 3 2 2 2 3 3 3 3 3 2 2 2 2 3 4 4 5 5 5 5 5 6 6 7
2 2 2 1 1 1 1 1 1 1 1 1 2 2 2 2 2 2 2 3 3 3 3 3 3 2 3 3 3 3 3 4 4 4 4 3 3 3 4 4 4 4 4 4 4 4 4 4 4 4 3 3 3 3 3 3 3 3 3 3 3 3 3 2 2 2 3 3 3 3 3 3 3 2 2 2 3 3 3 3 3 3 4 4 5 7
2 2 2 1 1 1 2 1 1 1 1 1 1 1 2 2 2 2 2 2 2 3 3 4 4 4 4 3 3 3 3 3 2 2 2 2 2 3 4 4 5 4 4 4 4 4 4 4 4 4 4 4 4 4 3 3 3 4 4 4 3 3 2 2 2 2 3 3 3 3 3 3 3 3 2 2 2 2 2 2 2 2 3 3 4 5
2 2 1 1 1 2 2 2 2 2 1 1 1 1 1 1 2 2 2 2 2 3 3 4 4 4 3 3 3 3 3 2 1 1 1 2 2 3 4 4 5 5 5 4 4 4 4 4 5 5 4 4 4 4 4 4 4 4 4 4 3 2 2 2 2 2 2 2 3 3 3 3 3 3 3 3 2 2 2 2 2 2 2 3 3 3
2 2 1 1 1 1 2 2 2 2 2 2 2 2 2 2 2 2 2 3 3 3 2 3 3 4 4 3 4 4 3 2 2 2 2 2 3 3 4 4 5 5 5 5 5 4 5 5 5 5 5 5 5 5 5 5 5 5 5 4 4 3 3 3 3 3 2 2 3 3 3 3 3 3 3 3 3 2 2 3 3 3 3 3 3 3
2 2 2 1 1 1 1 2 2 2 2 2 2 2 2 2 2 2 3 3 3 2 2 2 3 3 4 4 4 4 3 3 2 3 3 4 4 4 4 5 5 5 5 5 5 6 6 6 6 6 5 5 5 5 5 5 5 5 5 5 5 5 4 4 3 2 2 2 3 3 3 3 3 3 3 3 3 3 3 3 4 4 4 3 3 3
2 2 2 2 2 2 2 2 2 2 2 3 3 3 2 2 2 3 3 4 4 3 3 2 2 3 4 4 4 3 3 3 3 4 4 5 5 5 5 5 5 5 5 6 6 6 6 6 6 6 5 5 5 5 5 5 5 5 5 5 5 4 3 2 2 1 2 3 3 3 3 3 3 3 3 3 4 4 4 4 4 5 5 4 4 4
3 3 3 2 2 2 2 3 3 3 2 3 3 3 2 2 2 3 3 3 4 4 3 3 2 3 3 4 4 3 3 3 4 5 5 6 6 6 5 6 6 6 6 6 6 6 6 6 6 5 5 5 5 5 5 5 5 5 5 5 5 4 3 3 3 3 3 3 3 3 2 2 3 3 3 4 4 4 4 4 4 4 5 5 5 5
3 3 3 3 2 3 3 3 3 3 3 3 3 3 2 2 2 3 3 4 4 4 3 3 2 3 3 3 3 3 3 3 3 4 4 5 6 7 6 6 6 6 7 7 7 6 5 5 5 5 5 5 5 5 6 6 6 6 5 5 5 5 5 4 4 4 4 3 3 3 2 2 2 3 3 4 4 4 4 4 4 4 5 5 5 5
2 3 3 3 3 3 4 4 3 3 3 3 3 3 3 2 2 3 4 4 4 4 3 2 2 3 3 3 3 3 3 3 3 3 3 3 4 5 5 5 5 5 6 6 7 7 7 6 5 5 5 5 5 5 6 6 6 5 5 5 5 4 4 4 4 4 4 4 3 3 2 2 2 3 3 4 4 4 4 4 5 5 5 5 5 5
3 3 3 3 3 4 4 3 3 3 3 3 3 3 3 3 3 3 4 4 4 3 3 3 3 3 4 3 3 3 4 4 3 3 2 2 3 3 4 4 5 5 5 6 7 7 7 7 7 6 5 5 5 5 5 5 5 5 5 4 4 4 4 4 4 4 4 3 3 3 2 2 3 3 4 4 4 4 5 5 5 5 5 5 5 5
3 3 3 3 3 4 4 4 3 3 3 4 4 4 3 3 4 4 4 4 4 3 3 3 3 4 4 4 4 4 4 4 4 3 3 2 2 2 3 3 4 5 6 7 7 8 8 8 8 8 7 6 5 5 5 5 5 5 4 4 4 4 4 4 4 3 3 3 3 2 2 3 3 4 4 4 5 5 5 5 5 5 5 5 5 5
3 3 3 3 3 4 4 4 4 4 4 4 4 4 4 4 5 5 4 4 3 3 3 3 4 4 4 4 4 4 4 4 4 4 3 3 3 2 3 3 4 5 5 6 7 7 8 8 9 9 8 7 6 6 5 5 5 4 4 4 4 4 4 4 4 4 4 3 2 2 3 3 3 3 4 5 5 6 6 6 6 6 5 5 5 5
4 4 4 4 4 4 4 4 4 4 4 4 4 4 4 4 4 4 4 3 3 3 3 4 4 5 5 4 4 4 4 4 4 3 3 3 2 3 3 3 4 4 4 4 4 5 5 5 7 8 10 10 8 7 5 5 5 4 4 4 4 4 4 4 4 4 4 4 3 3 3 3 3 3 3 4 5 6 6 6 6 6 5 5 5 5
5 5 4 4 4 4 4 4 4 5 5 5 5 5 4 4 3 3 3 3 3 3 4 4 4 5 5 5 5 5 4 4 4 4 3 2 2 3 3 3 3 3 3 3 3 3 3 3 3 5 8 10 11 9 6 5 4 4 4 4 4 3 3 4 4 4 4 4 4 4 4 4 4 4 4 4 5 5 6 6 6 6 6 5 6 6
Wind_Direction
258 276 287 297 299 303 320 339 339 336 336 340 344 343 338 335 338 345 353 354 356 359 5 9 13 16 17 16 17 18 21 23 26 28 30 32 33 33 34 34 34 34 35 36 36 37 38 39 39 40 40 40 40 40 39 39 39 38 38 37 37 36 36 36 35 34 33 32 31 31 32 35 38 41 43 44 45 45 45 46 48 50 53 57 60 64
231 245 259 282 292 297 305 332 338 338 336 338 339 339 334 334 336 342 350 352 353 354 356 2 10 17 21 18 17 17 19 21 23 25 28 30 32 33 34 34 34 34 34 34 35 36 37 38 39 39 40 40 40 40 40 39 39 39 38 38 37 37 36 35 35 34 33 32 31 30 30 31 34 38 42 44 46 48 48 49 50 50 51 53 56 59
212 224 231 263 281 290 295 319 327 328 326 324 326 329 331 334 337 339 343 347 348 346 346 354 5 15 21 21 18 17 18 20 21 23 26 28 31 32 33 34 34 34 34 34 34 34 35 36 37 38 39 40 41 41 41 40 40 39 39 38 37 37 36 36 35 34 33 32 31 30 30 30 31 33 37 41 44 47 49 51 53 53 54 55 56 57
205 215 213 231 259 274 283 300 307 308 305 305 312 321 330 334 335 335 337 337 337 337 341 353 2 10 17 20 18 18 18 19 20 21 23 26 28 31 33 34 34 34 34 34 34 34 34 34 35 36 37 38 40 41 41 41 41 41 40 39 39 38 37 37 36 35 34 33 32 31 30 30 30 30 32 35 38 42 45 48 51 54 55 56 57 59
201 204 197 214 240 258 270 282 291 295 294 297 304 314 325 327 326 325 330 332 333 336 347 352 359 6 12 14 15 16 17 19 20 21 22 24 26 29 31 33 34 35 35 35 35 35 34 34 34 35 36 37 38 39 40 41 42 42 42 42 41 40 39 39 38 37 36 35 34 33 32 30 29 29 29 31 33 36 39 43 46 49 52 54 56 58
191 188 182 209 234 252 264 270 279 288 291 291 292 295 297 305 312 319 329 333 334 337 342 345 351 360 10 11 11 13 15 18 20 21 21 23 25 27 29 31 33 35 35 36 36 36 35 34 34 34 35 36 36 37 38 39 41 42 43 43 43 43 43 42 41 40 39 38 36 35 34 32 31 30 29 30 31 32 35 38 41 43 46 49 51 53
179 174 179 207 225 237 246 252 261 273 283 286 282 276 270 273 289 308 328 334 334 332 331 333 338 349 7 9 8 9 12 16 19 20 21 23 25 26 27 30 32 33 35 36 36 36 36 35 34 34 34 35 35 36 37 38 39 40 41 42 43 44 45 45 45 44 43 42 40 39 37 35 33 32 31 30 30 31 33 34 37 39 41 43 45 48
179 177 185 203 214 220 224 223 226 240 272 290 294 290 280 269 267 280 308 331 335 333 330 329 332 344 3 5 6 7 12 13 16 19 20 23 25 26 27 29 31 32 34 35 36 36 36 35 34 33 33 33 34 35 35 36 37 38 39 40 42 43 44 46 46 47 47 46 45 44 42 40 37 35 34 32 32 31 32 33 34 36 38 40 41 43
191 188 191 204 212 219 221 206 193 188 235 294 304 308 310 304 294 278 263 324 348 345 337 335 337 344 358 358 2 7 16 17 18 19 19 20 20 22 26 29 31 33 34 35 35 36 36 36 35 34 33 32 32 33 33 34 35 36 38 39 39 41 42 44 45 47 48 49 49 49 48 46 43 41 38 36 35 34 33 33 33 34 36 38 40 41
207 204 201 205 212 224 237 218 178 148 148 274 287 294 304 311 310 304 286 320 3 360 348 344 341 342 346 350 355 1 9 21 28 29 26 19 14 14 23 29 32 34 36 36 36 37 37 37 36 35 34 33 32 32 32 33 34 35 36 37 38 39 40 41 43 45 46 48 49 50 51 50 49 47 45 42 40 38 36 35 34 33 34 36 38 40
213 214 217 214 213 219 242 247 235 167 231 253 248 244 242 277 305 310 307 321 346 2 358 354 348 343 341 342 345 349 351 3 19 29 30 19 12 10 17 28 33 35 37 38 38 38 38 38 37 36 35 35 34 34 33 33 34 35 36 37 37 38 39 40 41 42 43 45 47 48 50 51 51 51 50 48 46 43 41 38 36 34 33 34 36 38
216 218 226 228 224 219 227 230 227 224 232 238 235 224 204 180 259 309 308 320 334 346 347 352 353 349 344 340 339 339 338 344 355 8 15 12 7 4 7 21 31 35 36 38 38 38 39 39 38 37 35 35 35 35 35 35 35 35 36 36 37 37 38 39 40 40 41 42 43 44 46 47 48 49 49 48 47 46 44 42 39 37 34 34 35 36
221 221 232 237 236 230 225 223 219 215 219 228 237 239 207 121 97 299 291 304 325 336 327 322 334 354 358 348 339 334 329 335 345 356 3 7 2 355 350 6 18 25 27 32 33 32 34 37 38 37 35 34 34 34 36 35 35 35 35 35 35 35 36 37 38 39 39 39 40 40 41 42 42 43 43 43 43 43 42 40 39 37 35 34 34 34
217 218 226 233 233 229 226 230 232 233 226 230 252 294 357 38 334 268 269 272 286 308 297 291 290 305 38 10 349 335 324 322 328 343 4 10 3 353 342 356 9 17 20 23 25 23 20 28 35 37 34 32 31 32 33 34 34 34 34 33 33 33 33 34 34 35 36 36 36 36 36 36 37 36 36 36 36 36 36 36 36 34 33 32 31 31
217 215 224 230 230 225 219 230 243 251 256 269 325 328 304 253 240 247 262 271 281 286 279 275 263 236 147 76 18 347 325 316 316 329 356 14 6 352 337 345 1 16 20 22 21 18 11 20 30 35 33 30 28 27 28 30 32 32 32 31 31 31 30 30 30 31 31 31 31 31 31 31 31 31 31 30 30 30 30 31 31 31 31 30 29 29
224 222 228 233 233 226 210 227 253 269 287 318 316 267 256 247 243 250 273 289 298 298 288 287 277 252 169 126 87 23 335 318 313 318 335 11 11 356 336 338 352 12 19 20 18 14 10 17 27 34 33 29 27 27 27 28 29 29 29 29 29 28 28 27 27 27 26 26 26 26 26 26 26 26 26 25 25 25 25 26 26 27 28 28 28 28
233 232 237 245 245 235 181 202 245 273 296 294 273 261 265 272 280 287 290 295 295 292 286 292 291 286 235 140 111 72 5 326 313 309 317 353 14 3 340 335 345 3 14 20 17 11 11 15 23 29 30 25 24 25 26 27 27 27 27 27 26 26 25 25 24 23 23 22 22 22 22 22 22 22 22 22 21 22 21 22 22 23 24 26 27 28
236 237 243 253 258 254 165 181 212 247 269 263 255 251 256 272 282 286 282 282 282 281 282 281 284 288 293 292 84 70 30 336 313 305 305 331 10 10 346 332 336 352 9 19 14 8 8 15 22 25 26 22 21 22 23 24 25 25 25 24 23 22 21 21 20 20 19 18 18 18 18 18 18 18 18 18 18 18 19 19 19 20 21 22 24 26
234 234 242 253 261 265 191 187 195 233 265 287 292 284 263 253 253 257 262 269 277 283 287 283 279 279 287 322 37 53 33 340 313 302 299 314 351 9 352 328 325 337 8 18 12 3 360 12 23 26 24 20 19 20 20 21 22 22 21 21 19 18 17 16 16 15 14 14 14 14 14 14 14 14 15 15 15 16 16 17 17 18 19 20 21 23
239 231 237 252 256 242 208 177 137 23 353 346 324 305 292 287 276 269 268 273 279 283 286 281 280 283 295 337 27 40 30 341 311 297 294 302 327 358 358 329 319 319 353 21 15 1 350 360 12 19 19 18 17 17 17 18 18 18 18 17 16 14 13 11 10 9 9 9 9 9 10 10 10 10 11 12 13 14 15 16 16 17 18 18 19 20
255 246 225 287 276 260 227 78 60 44 20 346 310 294 297 301 298 296 305 304 296 285 273 273 288 315 338 350 12 25 21 343 317 303 297 292 298 335 10 332 317 311 320 2 16 4 349 354 4 13 14 14 15 15 16 16 16 15 15 13 12 10 8 7 5 4 3 3 3 3 4 5 5 6 7 8 9 11 12 14 15 16 17 18 18 18
288 343 58 38 21 14 35 49 48 40 17 345 320 311 317 321 320 322 332 330 323 314 311 325 349 3 355 349 1 18 21 352 327 313 302 289 285 304 36 342 316 306 308 335 358 360 349 353 3 12 13 12 13 15 16 15 14 13 12 10 8 6 4 3 1 360 358 358 358 357 358 359 359 0 1 3 4 6 8 9 11 13 15 16 16 15
14 46 58 51 44 42 45 49 46 38 17 360 350 350 351 347 341 339 345 344 342 340 348 360 2 343 300 301 334 27 46 15 336 311 295 287 291 325 41 351 314 301 301 325 338 340 334 341 353 5 13 12 13 15 16 14 12 10 9 7 4 2 360 358 357 355 354 353 352 352 352 353 353 354 355 356 358 359 1 2 4 6 10 12 13 11
43 52 56 52 48 47 49 49 45 39 25 17 12 10 6 1 354 348 350 346 340 334 331 298 260 239 223 228 218 97 75 47 352 306 286 286 297 327 25 353 316 301 300 321 329 322 311 315 328 350 6 11 13 14 14 13 11 8 6 2 360 357 355 354 352 351 350 349 348 347 347 347 347 348 349 349 350 351 352 352 354 357 1 5 6 5
35 39 41 44 48 50 52 51 48 41 31 25 22 17 4 354 325 269 240 263 285 291 287 276 267 258 241 249 240 111 83 60 18 325 296 291 296 314 6 350 320 306 303 314 318 309 295 293 298 315 335 5 12 14 13 11 9 6 3 359 355 352 350 349 348 346 345 344 343 342 342 341 342 342 342 342 342 342 342 341 343 346 351 355 357 356
41 43 45 50 57 63 65 62 58 51 43 36 25 5 341 318 290 267 249 254 286 297 295 289 284 282 282 273 268 301 73 62 39 360 319 303 297 300 342 351 329 311 304 306 305 297 288 285 286 291 304 340 4 12 13 10 7 3 0 356 352 348 345 344 343 342 340 339 339 338 338 337 337 337 337 336 335 334 332 332 333 336 340 342 342 341
52 53 54 56 61 66 68 66 64 60 55 51 42 22 346 324 313 309 318 343 344 325 308 299 295 294 291 277 281 334 40 47 43 26 345 307 295 295 330 356 342 320 307 303 300 293 284 281 282 286 293 309 335 360 10 7 4 360 357 353 348 344 341 339 338 337 336 335 335 335 335 334 334 333 332 331 330 328 326 325 325 326 327 326 324 321
52 52 53 54 57 60 63 62 61 60 59 60 57 46 20 360 352 355 5 7 356 334 310 302 301 302 303 303 317 340 348 10 37 33 356 305 290 293 332 353 345 327 312 304 294 281 268 266 267 271 278 291 308 332 357 357 355 353 352 348 344 340 337 335 334 333 332 331 332 332 333 333 332 331 329 327 326 323 321 320 319 317 312 306 301 299
48 49 50 50 52 55 59 60 60 59 59 60 60 57 50 46 39 32 23 10 353 333 316 310 309 309 311 314 317 312 287 346 46 39 357 304 288 292 332 342 344 336 321 305 290 267 243 240 242 250 265 285 300 313 327 334 339 341 344 342 339 336 333 332 331 330 328 328 329 329 330 330 330 328 326 324 322 320 317 316 314 310 302 298 297 299
33 37 42 41 41 43 47 52 54 54 54 55 55 57 58 66 69 64 47 18 358 344 336 330 327 325 322 315 305 292 268 65 58 41 357 309 295 301 328 330 342 349 339 315 299 279 248 217 208 221 255 280 292 301 310 316 323 329 333 335 332 330 331 330 328 326 325 326 327 328 328 329 328 326 324 321 319 316 314 312 309 305 299 300 301 301
1 7 21 25 25 24 27 33 38 42 42 43 43 44 48 64 79 83 75 48 22 2 349 342 340 338 334 322 308 301 320 60 55 39 359 315 304 312 330 324 331 347 356 325 311 301 295 247 165 172 238 269 281 291 302 310 318 325 329 328 325 325 328 327 322 319 318 321 325 328 330 329 327 325 322 319 315 313 311 311 307 303 298 300 299 298
346 349 357 6 9 9 10 15 20 23 26 28 27 25 24 38 59 78 84 74 55 28 1 347 340 337 333 323 313 312 333 33 44 34 4 323 308 311 326 315 314 318 335 308 299 299 303 315 339 359 283 276 280 287 297 304 311 318 326 323 320 319 321 316 311 307 306 314 322 328 332 331 329 325 321 316 313 310 309 310 308 303 297 295 293 293
329 330 336 344 354 3 7 8 12 14 17 19 19 15 12 15 27 47 71 81 80 66 31 353 338 331 325 316 307 305 313 354 29 35 11 329 308 305 313 304 301 300 295 277 272 275 284 297 309 314 305 293 287 288 293 296 302 311 321 320 317 314 313 308 304 301 300 305 310 317 326 330 328 324 320 315 311 309 308 310 308 304 296 292 289 288
313 314 316 328 346 4 12 13 13 15 17 18 16 12 8 6 10 19 33 55 73 82 80 32 342 325 319 313 307 303 302 346 31 38 15 332 310 305 308 300 298 298 297 285 274 269 269 278 288 296 299 295 290 283 283 287 294 303 311 311 308 305 305 304 304 304 303 300 295 292 302 314 317 316 315 312 310 309 309 309 306 301 294 290 288 286
296 296 306 320 336 349 2 11 16 19 21 21 18 14 8 5 6 9 11 17 31 53 82 91 50 310 307 305 304 304 307 345 20 30 11 334 313 306 303 298 298 300 299 295 291 286 281 282 289 296 300 298 293 283 273 278 286 291 291 289 288 289 293 299 303 305 304 295 286 278 277 287 294 301 306 311 312 312 310 306 301 296 291 287 285 284
282 277 280 294 303 307 318 348 11 22 26 24 20 16 11 8 8 9 8 4 3 2 8 32 171 211 247 273 285 293 303 326 349 3 358 333 313 302 298 297 300 302 299 296 295 296 295 296 297 297 295 293 292 292 291 285 277 274 273 275 277 281 287 293 299 302 301 294 287 282 281 284 289 295 302 307 307 306 303 299 294 290 285 283 281 282
281 275 264 263 269 278 287 314 359 18 17 18 16 13 10 8 8 7 8 360 351 342 334 322 292 241 223 235 253 272 292 311 326 337 340 327 309 296 291 295 300 302 297 295 296 299 301 301 299 295 289 286 290 301 314 310 299 289 286 287 287 286 285 285 289 292 293 291 290 291 293 295 296 297 297 300 297 292 290 287 283 281 281 280 279 279
283 284 281 279 284 292 303 327 354 10 4 2 3 3 360 357 357 356 355 347 337 330 325 317 307 291 269 260 259 265 280 298 313 324 330 320 304 292 288 292 293 292 286 287 292 296 298 296 296 295 292 292 296 302 309 312 309 307 307 302 295 285 277 274 274 276 278 284 290 296 298 299 297 295 290 286 280 276 275 269 267 270 276 277 276 276
281 287 296 306 315 324 326 338 348 355 353 351 352 350 343 335 331 328 323 317 310 307 306 304 303 300 294 285 275 268 267 281 297 310 311 297 286 282 284 286 287 287 285 285 287 288 287 286 289 292 297 301 304 306 310 309 309 309 311 305 295 279 265 261 260 262 268 280 289 294 293 291 287 282 276 269 267 267 272 272 273 275 276 274 272 270
286 287 298 319 329 331 328 331 334 336 331 330 327 320 308 304 302 296 287 277 272 271 276 281 282 282 279 272 266 260 254 251 248 245 242 239 248 262 274 280 286 291 294 291 288 284 279 278 278 281 287 293 299 304 308 305 305 307 311 307 300 293 288 278 270 266 270 281 288 291 291 290 285 278 272 271 270 272 278 282 282 279 275 274 273 271
293 292 293 303 308 305 308 317 317 313 307 305 298 289 286 291 292 291 288 276 267 262 267 276 277 277 274 264 259 255 249 237 227 224 223 217 230 248 268 274 282 288 292 288 283 277 272 272 273 275 278 282 288 292 293 293 296 299 301 298 298 301 304 292 283 277 278 282 284 284 286 287 286 284 284 282 279 278 278 279 279 276 270 264 264 269
298 298 299 299 295 293 297 298 294 292 291 288 282 275 273 284 292 296 297 293 288 282 276 281 287 291 291 284 275 266 257 243 227 217 217 215 222 236 256 267 274 279 281 279 275 269 264 264 267 271 275 279 284 288 288 291 293 295 293 292 295 298 295 280 267 257 265 270 270 271 274 280 285 289 294 292 287 281 274 271 271 270 268 263 259 259
305 308 315 317 314 308 301 291 282 275 271 271 272 272 271 276 289 297 301 299 297 293 284 283 288 295 296 294 289 281 269 251 235 224 219 214 216 226 245 257 264 270 273 272 270 266 261 258 260 263 266 272 277 281 285 289 291 291 287 289 293 296 294 284 274 266 265 271 272 275 277 284 292 297 298 292 286 278 268 260 257 256 258 262 262 260
314 316 319 316 311 301 289 279 270 264 261 267 275 280 279 276 285 291 293 293 292 291 290 292 292 290 286 284 285 284 280 265 248 236 227 218 215 218 233 243 249 253 256 260 264 266 265 261 259 260 263 267 271 276 279 283 286 287 286 287 285 283 281 291 299 301 294 288 283 281 283 292 299 300 293 283 274 267 260 256 252 250 249 253 256 259
313 311 307 300 291 284 278 276 275 275 276 278 282 288 294 290 289 289 287 286 285 284 285 293 294 290 282 281 283 286 287 276 261 244 232 222 218 218 226 234 240 244 247 252 258 263 267 267 267 268 268 268 269 271 274 278 280 281 283 282 279 275 271 277 283 286 285 283 280 279 284 299 303 297 286 278 271 267 265 265 264 262 258 254 255 256
290 289 289 287 284 281 279 283 286 289 291 291 291 293 296 295 290 283 279 278 277 278 278 279 281 281 282 286 289 289 287 279 269 255 236 219 211 211 217 225 232 238 244 250 254 259 262 266 270 273 274 271 268 266 266 269 272 275 277 277 277 275 273 271 269 268 270 272 275 280 293 302 297 286 279 279 280 281 281 277 275 272 270 265 262 259
277 281 285 289 290 290 288 287 286 284 284 286 286 285 283 281 278 274 269 266 267 268 271 269 267 268 273 278 281 281 281 280 278 272 259 236 219 212 213 219 225 231 240 246 250 253 256 258 262 265 269 270 268 266 262 261 263 267 272 275 276 276 275 271 268 265 265 267 272 281 296 293 284 279 281 288 292 292 289 283 278 273 270 266 263 261
279 283 287 292 294 294 293 289 283 278 276 275 275 273 269 264 263 265 266 264 265 267 270 269 268 267 268 268 268 269 272 276 279 281 281 274 260 246 236 232 229 230 233 238 242 246 248 248 248 250 254 258 262 265 266 264 263 264 268 271 274 275 275 275 273 271 266 263 264 267 275 276 280 285 294 297 295 291 287 283 278 272 266 263 260 259
289 288 288 288 288 287 287 287 283 278 275 275 274 271 264 256 254 256 262 266 269 273 275 275 275 274 272 269 267 265 266 269 271 274 275 273 269 263 257 250 245 240 237 237 238 241 243 241 238 237 238 241 247 256 264 267 268 268 268 269 271 273 275 277 278 278 275 269 253 235 235 258 273 285 293 290 286 283 283 281 278 275 270 265 261 259
292 288 286 282 280 279 281 283 281 279 277 276 273 269 263 253 246 245 252 261 268 274 277 279 280 279 277 274 272 270 268 267 266 263 259 257 255 256 256 254 253 253 253 250 249 249 248 243 234 228 226 226 230 239 253 262 267 270 269 267 266 268 272 277 280 282 283 282 272 255 246 256 263 268 271 273 275 277 279 278 277 275 273 270 266 264
291 288 284 279 276 274 274 275 275 274 273 271 270 268 265 260 252 249 254 263 270 275 277 278 277 276 276 276 275 273 271 271 269 268 267 265 262 260 259 258 260 262 265 265 265 265 265 260 246 229 217 214 216 222 236 250 262 268 270 266 265 266 271 276 279 282 284 285 283 277 267 262 257 252 249 258 266 271 273 274 274 275 275 275 274 272